Location: Ballingbuur
(53.0000°N, 5.7667°E)
Time: 14:50:51
(UTC+00:00)

Meteor 1-10 Rocket - Visible Passes

Search period start: 20 April 2021 00:00
Search period end: 30 April 2021 00:00
Orbit: 835 x 911 km, 81.3° (Epoch: 19 April)

Date Brightness Start Highest point End Pass type
(mag) Time Alt. Az. Time Alt. Az. Time Alt. Az.
20 Apr 4.4 00:50:40 48° WSW 00:51:49 57° WNW 00:57:19 10° N visible
20 Apr 6.3 02:34:04 10° WNW 02:36:35 13° NW 02:39:05 10° NNW visible
20 Apr 5.4 23:02:48 28° E 23:03:23 28° E 23:08:03 10° NNE visible
21 Apr 4.5 00:45:16 45° WSW 00:46:29 55° WNW 00:51:58 10° N visible
21 Apr 6.4 02:28:57 10° WNW 02:31:18 13° NW 02:33:39 10° NNW visible
21 Apr 5.3 22:57:24 29° E 22:58:02 29° E 23:02:45 10° NNE visible
22 Apr 4.6 00:39:52 43° WSW 00:41:10 53° WNW 00:46:37 10° N visible
22 Apr 6.4 02:23:52 10° WNW 02:26:01 12° NW 02:28:10 10° NNW visible
22 Apr 5.2 22:51:59 30° ESE 22:52:39 30° E 22:57:27 10° NNE visible
23 Apr 4.6 00:34:27 41° WSW 00:35:50 51° WNW 00:41:17 10° N visible
23 Apr 6.4 02:18:47 10° WNW 02:20:44 12° NW 02:22:42 10° NNW visible
23 Apr 5.2 22:46:33 30° ESE 22:47:18 32° E 22:52:09 10° NNE visible
24 Apr 4.7 00:29:01 39° WSW 00:30:31 49° WNW 00:35:56 10° N visible
24 Apr 6.5 02:13:43 10° WNW 02:15:27 11° NW 02:17:11 10° NNW visible
24 Apr 5.1 22:41:06 31° ESE 22:41:56 33° E 22:46:51 10° NNE visible
25 Apr 4.8 00:23:34 37° WSW 00:25:11 47° WNW 00:30:35 10° N visible
25 Apr 6.5 02:08:42 10° WNW 02:10:10 11° NW 02:11:39 10° NNW visible
25 Apr 5.0 22:35:38 32° ESE 22:36:34 34° E 22:41:33 10° NNE visible
26 Apr 4.8 00:18:06 35° WSW 00:19:52 45° WNW 00:25:14 10° N visible
26 Apr 6.6 02:03:45 10° WNW 02:04:54 11° NW 02:06:03 10° NNW visible
26 Apr 5.0 22:30:10 33° ESE 22:31:13 36° E 22:36:15 10° NNE visible
27 Apr 4.9 00:12:38 32° WSW 00:14:33 44° WNW 00:19:53 10° N visible
27 Apr 6.7 01:58:54 10° NW 01:59:37 10° NW 02:00:19 10° NW visible
27 Apr 4.9 22:24:41 33° ESE 22:25:51 37° E 22:30:56 10° NNE visible
28 Apr 5.0 00:07:08 30° WSW 00:09:13 42° WNW 00:14:32 10° N visible
28 Apr 4.9 22:19:10 34° ESE 22:20:29 39° E 22:25:37 10° NNE visible
29 Apr 5.1 00:01:39 28° WSW 00:03:53 41° WNW 00:09:11 10° N visible
29 Apr 4.8 22:13:39 34° SE 22:15:08 40° E 22:20:19 10° NNE visible
